Time,TemperatureF,DewpointF,PressureIn,WindDirection,WindDirectionDegrees,WindSpeedMPH,WindSpeedGustMPH,Humidity,HourlyPrecipIn,Conditions,Clouds,dailyrainin,SoftwareType,DateUTC
2013-08-30 00:03:00,59.0,46.0,27.52,East,90,0.0,0.4,62,0.00,,,0.00,WUHU216HW,2013-08-30 07:03:00,
2013-08-30 00:08:00,59.0,46.5,27.52,East,90,0.0,0.4,63,0.00,,,0.00,WUHU216HW,2013-08-30 07:08:00,
2013-08-30 00:13:00,59.0,46.5,27.52,East,90,0.0,0.4,63,0.00,,,0.00,WUHU216HW,2013-08-30 07:13:00,
2013-08-30 00:18:00,59.2,46.6,27.52,East,90,0.2,0.2,63,0.00,,,0.00,WUHU216HW,2013-08-30 07:18:00,
2013-08-30 00:23:00,59.2,46.6,27.52,East,90,0.0,0.2,63,0.00,,,0.00,WUHU216HW,2013-08-30 07:23:00,
2013-08-30 00:28:00,59.4,46.8,27.52,ESE,113,0.0,0.2,63,0.00,,,0.00,WUHU216HW,2013-08-30 07:28:00,
2013-08-30 00:33:00,59.4,46.8,27.52,ESE,113,0.0,0.2,63,0.00,,,0.00,WUHU216HW,2013-08-30 07:33:00,
2013-08-30 00:38:00,59.6,47.0,27.52,ESE,113,0.0,0.0,63,0.00,,,0.00,WUHU216HW,2013-08-30 07:38:00,
2013-08-30 00:43:00,59.8,47.2,27.52,ESE,113,0.0,0.0,63,0.00,,,0.00,WUHU216HW,2013-08-30 07:43:00,
2013-08-30 00:48:00,59.8,47.2,27.52,ESE,113,0.0,0.0,63,0.00,,,0.00,WUHU216HW,2013-08-30 07:48:00,
2013-08-30 00:53:00,59.8,46.7,27.51,ESE,113,0.0,0.0,62,0.00,,,0.00,WUHU216HW,2013-08-30 07:53:00,
2013-08-30 00:58:00,59.6,47.0,27.52,SSW,203,0.0,0.2,63,0.00,,,0.00,WUHU216HW,2013-08-30 07:58:00,
2013-08-30 01:03:00,59.4,46.8,27.52,SSW,203,0.0,0.2,63,0.00,,,0.00,WUHU216HW,2013-08-30 08:03:00,
2013-08-30 01:08:00,59.2,46.6,27.52,SSW,203,0.0,0.0,63,0.00,,,0.00,WUHU216HW,2013-08-30 08:08:00,
2013-08-30 01:13:00,58.9,46.7,27.52,SW,225,0.0,0.9,64,0.00,,,0.00,WUHU216HW,2013-08-30 08:13:00,
2013-08-30 01:18:00,58.9,46.7,27.53,SW,225,0.0,0.9,64,0.00,,,0.00,WUHU216HW,2013-08-30 08:18:00,
2013-08-30 01:23:00,58.7,46.5,27.52,SW,225,0.0,0.4,64,0.00,,,0.00,WUHU216HW,2013-08-30 08:23:00,
2013-08-30 01:28:00,58.7,46.5,27.52,ESE,113,0.2,1.1,64,0.00,,,0.00,WUHU216HW,2013-08-30 08:28:00,
2013-08-30 01:33:00,58.9,46.7,27.52,ESE,113,0.0,1.1,64,0.00,,,0.00,WUHU216HW,2013-08-30 08:33:00,
2013-08-30 01:38:00,59.0,46.8,27.52,ESE,113,0.0,0.4,64,0.00,,,0.00,WUHU216HW,2013-08-30 08:38:00,
2013-08-30 01:43:00,59.0,48.5,27.52,SE,135,2.2,2.9,68,0.00,,,0.00,WUHU216HW,2013-08-30 08:43:00,
2013-08-30 01:48:00,59.2,48.2,27.53,SE,135,1.1,2.9,67,0.00,,,0.00,WUHU216HW,2013-08-30 08:48:00,
2013-08-30 01:53:00,59.6,48.3,27.53,South,180,0.0,2.7,66,0.00,,,0.00,WUHU216HW,2013-08-30 08:53:00,
2013-08-30 01:58:00,59.8,48.0,27.53,ESE,113,0.0,1.1,65,0.00,,,0.00,WUHU216HW,2013-08-30 08:58:00,
2013-08-30 02:03:00,59.8,48.0,27.53,East,90,0.4,0.4,65,0.00,,,0.00,WUHU216HW,2013-08-30 09:03:00,
2013-08-30 02:08:00,60.1,48.3,27.53,ENE,68,0.0,0.7,65,0.00,,,0.00,WUHU216HW,2013-08-30 09:08:00,
2013-08-30 02:13:00,60.1,49.1,27.53,SE,135,0.4,0.7,67,0.00,,,0.00,WUHU216HW,2013-08-30 09:13:00,
2013-08-30 02:18:00,60.3,48.5,27.54,ESE,113,0.0,1.1,65,0.00,,,0.00,WUHU216HW,2013-08-30 09:18:00,
2013-08-30 02:23:00,60.3,49.0,27.53,SE,135,0.2,1.1,66,0.00,,,0.00,WUHU216HW,2013-08-30 09:23:00,
2013-08-30 02:28:00,60.5,48.7,27.53,SE,135,0.0,0.7,65,0.00,,,0.00,WUHU216HW,2013-08-30 09:28:00,
2013-08-30 02:33:00,60.8,49.5,27.53,SE,135,0.4,2.0,66,0.00,,,0.00,WUHU216HW,2013-08-30 09:33:00,
2013-08-30 02:38:00,61.7,49.9,27.53,SSW,203,0.4,2.0,65,0.00,,,0.00,WUHU216HW,2013-08-30 09:38:00,
2013-08-30 02:43:00,62.3,50.3,27.53,SW,225,0.7,2.0,65,0.00,,,0.00,WUHU216HW,2013-08-30 09:43:00,
2013-08-30 02:48:00,62.5,50.1,27.53,SSW,203,0.7,2.0,64,0.00,,,0.00,WUHU216HW,2013-08-30 09:48:00,
2013-08-30 02:53:00,63.0,50.2,27.53,South,180,1.1,2.2,63,0.00,,,0.00,WUHU216HW,2013-08-30 09:53:00,
2013-08-30 02:58:00,63.2,50.3,27.54,SSW,203,0.4,2.2,63,0.00,,,0.00,WUHU216HW,2013-08-30 09:58:00,
2013-08-30 03:03:00,63.4,50.5,27.54,SSW,203,1.3,2.5,63,0.00,,,0.00,WUHU216HW,2013-08-30 10:03:00,
2013-08-30 03:08:00,63.5,50.2,27.54,SW,225,0.7,2.5,62,0.00,,,0.00,WUHU216HW,2013-08-30 10:08:00,
2013-08-30 03:13:00,63.7,50.4,27.54,South,180,1.3,2.5,62,0.00,,,0.00,WUHU216HW,2013-08-30 10:13:00,
2013-08-30 03:18:00,63.7,50.4,27.54,SSW,203,1.3,2.2,62,0.00,,,0.00,WUHU216HW,2013-08-30 10:18:00,
2013-08-30 03:23:00,63.7,50.9,27.54,ESE,113,1.1,2.5,63,0.00,,,0.00,WUHU216HW,2013-08-30 10:23:00,
2013-08-30 03:28:00,63.5,50.7,27.53,SW,225,0.9,2.5,63,0.00,,,0.00,WUHU216HW,2013-08-30 10:28:00,
2013-08-30 03:33:00,63.4,51.0,27.54,SSE,158,1.8,2.5,64,0.00,,,0.00,WUHU216HW,2013-08-30 10:33:00,
2013-08-30 03:38:00,63.2,50.8,27.54,SSW,203,1.1,2.5,64,0.00,,,0.00,WUHU216HW,2013-08-30 10:38:00,
2013-08-30 03:43:00,63.0,51.8,27.54,SSE,158,0.4,1.8,67,0.00,,,0.00,WUHU216HW,2013-08-30 10:43:00,
2013-08-30 03:48:00,62.6,52.7,27.54,SSE,158,0.9,1.6,70,0.00,,,0.00,WUHU216HW,2013-08-30 10:48:00,
2013-08-30 03:53:00,62.1,52.7,27.53,ESE,113,1.1,1.6,71,0.00,,,0.00,WUHU216HW,2013-08-30 10:53:00,
2013-08-30 03:58:00,61.7,51.5,27.53,SW,225,0.4,1.6,69,0.00,,,0.00,WUHU216HW,2013-08-30 10:58:00,
2013-08-30 04:03:00,61.6,51.4,27.54,SSW,203,1.3,1.8,69,0.00,,,0.00,WUHU216HW,2013-08-30 11:03:00,
2013-08-30 04:08:00,61.2,51.9,27.55,SSW,203,0.4,1.8,71,0.00,,,0.00,WUHU216HW,2013-08-30 11:08:00,
2013-08-30 04:13:00,61.0,52.4,27.55,South,180,0.9,1.8,73,0.00,,,0.00,WUHU216HW,2013-08-30 11:13:00,
2013-08-30 04:18:00,61.0,52.4,27.55,SSW,203,0.9,1.8,73,0.00,,,0.00,WUHU216HW,2013-08-30 11:18:00,
2013-08-30 04:23:00,60.8,52.6,27.55,SSE,158,0.9,1.1,74,0.00,,,0.00,WUHU216HW,2013-08-30 11:23:00,
2013-08-30 04:28:00,60.8,52.6,27.55,SSE,158,0.4,2.0,74,0.00,,,0.00,WUHU216HW,2013-08-30 11:28:00,
2013-08-30 04:33:00,60.7,52.4,27.55,SE,135,0.4,2.2,74,0.00,,,0.00,WUHU216HW,2013-08-30 11:33:00,
2013-08-30 04:38:00,60.3,52.0,27.55,SSE,158,0.0,2.5,74,0.00,,,0.00,WUHU216HW,2013-08-30 11:38:00,
2013-08-30 04:43:00,60.1,52.2,27.56,SSE,158,0.2,2.5,75,0.00,,,0.00,WUHU216HW,2013-08-30 11:43:00,
2013-08-30 04:48:00,60.1,51.5,27.56,SE,135,0.0,1.3,73,0.00,,,0.00,WUHU216HW,2013-08-30 11:48:00,
2013-08-30 04:53:00,59.9,51.7,27.56,SE,135,0.4,1.1,74,0.00,,,0.00,WUHU216HW,2013-08-30 11:53:00,
2013-08-30 04:58:00,59.8,51.5,27.56,South,180,0.9,0.9,74,0.00,,,0.00,WUHU216HW,2013-08-30 11:58:00,
2013-08-30 05:03:00,59.6,51.3,27.57,SE,135,0.0,0.9,74,0.00,,,0.00,WUHU216HW,2013-08-30 12:03:00,
2013-08-30 05:08:00,59.6,50.9,27.57,SE,135,0.0,0.9,73,0.00,,,0.00,WUHU216HW,2013-08-30 12:08:00,
2013-08-30 05:13:00,59.4,50.8,27.57,ESE,113,0.0,0.0,73,0.00,,,0.00,WUHU216HW,2013-08-30 12:13:00,
2013-08-30 05:18:00,59.2,51.3,27.57,SE,135,1.1,1.1,75,0.00,,,0.00,WUHU216HW,2013-08-30 12:18:00,
2013-08-30 05:23:00,58.9,51.3,27.57,ESE,113,0.9,1.3,76,0.00,,,0.00,WUHU216HW,2013-08-30 12:23:00,
2013-08-30 05:28:00,58.7,51.5,27.57,SE,135,0.7,1.3,77,0.00,,,0.00,WUHU216HW,2013-08-30 12:28:00,
2013-08-30 05:33:00,58.5,52.0,27.57,ESE,113,0.9,1.3,79,0.00,,,0.00,WUHU216HW,2013-08-30 12:33:00,
2013-08-30 05:38:00,58.3,50.8,27.57,SE,135,0.0,1.3,76,0.00,,,0.00,WUHU216HW,2013-08-30 12:38:00,
2013-08-30 05:43:00,58.1,50.6,27.57,SE,135,0.0,0.9,76,0.00,,,0.00,WUHU216HW,2013-08-30 12:43:00,
2013-08-30 05:48:00,58.0,50.0,27.57,ESE,113,0.0,0.4,75,0.00,,,0.00,WUHU216HW,2013-08-30 12:48:00,
2013-08-30 05:53:00,57.8,49.9,27.58,ESE,113,0.0,0.4,75,0.00,,,0.00,WUHU216HW,2013-08-30 12:53:00,
2013-08-30 05:58:00,57.4,49.9,27.58,SE,135,0.0,0.0,76,0.00,,,0.00,WUHU216HW,2013-08-30 12:58:00,
2013-08-30 06:03:00,57.2,50.8,27.57,SE,135,0.4,0.4,79,0.00,,,0.00,WUHU216HW,2013-08-30 13:03:00,
2013-08-30 06:08:00,56.9,50.4,27.58,SE,135,0.2,0.7,79,0.00,,,0.00,WUHU216HW,2013-08-30 13:08:00,
2013-08-30 06:13:00,56.7,50.6,27.58,ESE,113,0.0,0.9,80,0.00,,,0.00,WUHU216HW,2013-08-30 13:13:00,
2013-08-30 06:18:00,56.9,51.8,27.58,ESE,113,1.1,1.6,83,0.00,,,0.00,WUHU216HW,2013-08-30 13:18:00,
2013-08-30 06:23:00,56.9,50.8,27.58,SE,135,0.0,1.6,80,0.00,,,0.00,WUHU216HW,2013-08-30 13:23:00,
2013-08-30 06:28:00,56.9,51.1,27.58,SSE,158,0.7,1.1,81,0.00,,,0.00,WUHU216HW,2013-08-30 13:28:00,
2013-08-30 06:33:00,56.7,51.6,27.58,SE,135,1.8,1.8,83,0.00,,,0.00,WUHU216HW,2013-08-30 13:33:00,
2013-08-30 06:38:00,56.5,51.4,27.58,SE,135,0.0,1.8,83,0.00,,,0.00,WUHU216HW,2013-08-30 13:38:00,
2013-08-30 06:43:00,56.7,51.0,27.59,ESE,113,0.0,1.6,81,0.00,,,0.00,WUHU216HW,2013-08-30 13:43:00,
2013-08-30 06:48:00,56.7,50.6,27.59,ENE,68,0.7,1.1,80,0.00,,,0.00,WUHU216HW,2013-08-30 13:48:00,
2013-08-30 06:53:00,56.7,50.6,27.59,SW,225,0.4,1.1,80,0.00,,,0.00,WUHU216HW,2013-08-30 13:53:00,
2013-08-30 06:58:00,56.7,51.6,27.59,SE,135,0.4,1.3,83,0.00,,,0.00,WUHU216HW,2013-08-30 13:58:00,
2013-08-30 07:03:00,56.9,51.8,27.59,SE,135,0.2,1.3,83,0.00,,,0.00,WUHU216HW,2013-08-30 14:03:00,
2013-08-30 07:08:00,56.9,51.8,27.59,ESE,113,0.7,1.1,83,0.00,,,0.00,WUHU216HW,2013-08-30 14:08:00,
2013-08-30 07:13:00,57.2,52.1,27.59,SE,135,0.0,1.1,83,0.00,,,0.00,WUHU216HW,2013-08-30 14:13:00,
2013-08-30 07:18:00,57.2,51.5,27.59,SE,135,0.0,0.7,81,0.00,,,0.00,WUHU216HW,2013-08-30 14:18:00,
2013-08-30 07:23:00,57.2,51.5,27.59,ESE,113,0.4,1.1,81,0.00,,,0.00,WUHU216HW,2013-08-30 14:23:00,
2013-08-30 07:28:00,57.2,51.5,27.60,ESE,113,0.2,1.1,81,0.00,,,0.00,WUHU216HW,2013-08-30 14:28:00,
2013-08-30 07:33:00,57.4,51.3,27.60,SE,135,0.0,0.9,80,0.00,,,0.00,WUHU216HW,2013-08-30 14:33:00,
2013-08-30 07:38:00,57.8,52.0,27.60,East,90,0.0,1.1,81,0.00,,,0.00,WUHU216HW,2013-08-30 14:38:00,
2013-08-30 07:43:00,58.0,52.2,27.60,SE,135,0.2,1.6,81,0.00,,,0.00,WUHU216HW,2013-08-30 14:43:00,
2013-08-30 07:48:00,58.7,53.2,27.60,SSE,158,0.2,1.6,82,0.00,,,0.00,WUHU216HW,2013-08-30 14:48:00,
2013-08-30 07:53:00,59.4,53.3,27.60,SW,225,0.4,1.3,80,0.00,,,0.00,WUHU216HW,2013-08-30 14:53:00,
2013-08-30 07:58:00,59.9,53.5,27.61,SW,225,0.0,1.8,79,0.00,,,0.00,WUHU216HW,2013-08-30 14:58:00,
2013-08-30 08:03:00,60.1,53.6,27.61,SW,225,0.7,2.5,79,0.00,,,0.00,WUHU216HW,2013-08-30 15:03:00,
2013-08-30 08:08:00,60.5,53.6,27.61,SSW,203,0.4,2.5,78,0.00,,,0.00,WUHU216HW,2013-08-30 15:08:00,
2013-08-30 08:13:00,61.0,53.8,27.61,SSW,203,2.2,2.9,77,0.00,,,0.00,WUHU216HW,2013-08-30 15:13:00,
2013-08-30 08:18:00,61.6,53.9,27.61,SW,225,1.8,3.4,76,0.00,,,0.00,WUHU216HW,2013-08-30 15:18:00,
2013-08-30 08:23:00,62.1,54.5,27.61,SSW,203,0.4,3.4,76,0.00,,,0.00,WUHU216HW,2013-08-30 15:23:00,
2013-08-30 08:28:00,62.6,54.2,27.60,SSE,158,1.1,4.0,74,0.00,,,0.00,WUHU216HW,2013-08-30 15:28:00,
2013-08-30 08:33:00,63.2,55.1,27.61,SW,225,2.2,4.0,75,0.00,,,0.00,WUHU216HW,2013-08-30 15:33:00,
2013-08-30 08:38:00,63.7,55.3,27.61,SE,135,2.0,3.4,74,0.00,,,0.00,WUHU216HW,2013-08-30 15:38:00,
2013-08-30 08:43:00,64.1,55.3,27.61,SW,225,2.0,3.6,73,0.00,,,0.00,WUHU216HW,2013-08-30 15:43:00,
2013-08-30 08:48:00,64.8,55.6,27.61,SSW,203,2.5,5.4,72,0.00,,,0.00,WUHU216HW,2013-08-30 15:48:00,
2013-08-30 08:53:00,65.9,55.8,27.61,SW,225,0.7,5.4,70,0.00,,,0.00,WUHU216HW,2013-08-30 15:53:00,
2013-08-30 08:58:00,65.9,55.8,27.61,SW,225,1.8,4.3,70,0.00,,,0.00,WUHU216HW,2013-08-30 15:58:00,
2013-08-30 09:03:00,66.4,55.5,27.61,SSE,158,1.8,4.5,68,0.00,,,0.00,WUHU216HW,2013-08-30 16:03:00,
2013-08-30 09:08:00,66.6,55.7,27.61,SSW,203,4.3,4.5,68,0.00,,,0.00,WUHU216HW,2013-08-30 16:08:00,
2013-08-30 09:13:00,66.6,54.8,27.61,SE,135,2.5,4.3,66,0.00,,,0.00,WUHU216HW,2013-08-30 16:13:00,
2013-08-30 09:18:00,67.0,55.6,27.61,SW,225,2.7,3.8,67,0.00,,,0.00,WUHU216HW,2013-08-30 16:18:00,
2013-08-30 09:23:00,67.9,55.2,27.61,South,180,1.3,4.0,64,0.00,,,0.00,WUHU216HW,2013-08-30 16:23:00,
2013-08-30 09:28:00,68.8,56.1,27.61,WSW,248,3.4,5.4,64,0.00,,,0.00,WUHU216HW,2013-08-30 16:28:00,
2013-08-30 09:33:00,69.5,56.4,27.62,SW,225,3.4,5.4,63,0.00,,,0.00,WUHU216HW,2013-08-30 16:33:00,
2013-08-30 09:38:00,70.2,56.6,27.61,SE,135,1.8,4.0,62,0.00,,,0.00,WUHU216HW,2013-08-30 16:38:00,
2013-08-30 09:43:00,70.7,56.7,27.61,SE,135,2.2,3.6,61,0.00,,,0.00,WUHU216HW,2013-08-30 16:43:00,
2013-08-30 09:48:00,71.3,57.2,27.62,SW,225,3.6,5.4,61,0.00,,,0.00,WUHU216HW,2013-08-30 16:48:00,
2013-08-30 09:53:00,71.5,57.3,27.62,SSE,158,1.1,5.4,61,0.00,,,0.00,WUHU216HW,2013-08-30 16:53:00,
2013-08-30 09:58:00,71.6,56.5,27.62,SSW,203,2.0,5.1,59,0.00,,,0.00,WUHU216HW,2013-08-30 16:58:00,
2013-08-30 10:03:00,72.0,56.9,27.62,South,180,0.7,4.0,59,0.00,,,0.00,WUHU216HW,2013-08-30 17:03:00,
2013-08-30 10:08:00,72.4,57.3,27.62,SSE,158,1.1,3.8,59,0.00,,,0.00,WUHU216HW,2013-08-30 17:08:00,
2013-08-30 10:13:00,72.7,56.0,27.62,SW,225,2.9,5.4,56,0.00,,,0.00,WUHU216HW,2013-08-30 17:13:00,
2013-08-30 10:18:00,73.1,56.9,27.62,WSW,248,1.3,5.4,57,0.00,,,0.00,WUHU216HW,2013-08-30 17:18:00,
2013-08-30 10:23:00,73.4,56.7,27.61,SE,135,0.0,4.5,56,0.00,,,0.00,WUHU216HW,2013-08-30 17:23:00,
2013-08-30 10:28:00,73.4,55.6,27.62,WSW,248,3.4,6.3,54,0.00,,,0.00,WUHU216HW,2013-08-30 17:28:00,
2013-08-30 10:33:00,73.3,56.0,27.62,West,270,2.0,6.3,55,0.00,,,0.00,WUHU216HW,2013-08-30 17:33:00,
2013-08-30 10:38:00,73.4,55.6,27.62,South,180,3.1,4.7,54,0.00,,,0.00,WUHU216HW,2013-08-30 17:38:00,
2013-08-30 10:43:00,72.7,54.6,27.62,WSW,248,4.0,4.0,53,0.00,,,0.00,WUHU216HW,2013-08-30 17:43:00,
2013-08-30 10:48:00,72.4,55.2,27.62,West,270,2.0,4.0,55,0.00,,,0.00,WUHU216HW,2013-08-30 17:48:00,
2013-08-30 10:53:00,72.7,55.0,27.62,SW,225,1.6,4.0,54,0.00,,,0.00,WUHU216HW,2013-08-30 17:53:00,
2013-08-30 10:58:00,73.4,54.6,27.62,South,180,3.8,5.6,52,0.00,,,0.00,WUHU216HW,2013-08-30 17:58:00,
2013-08-30 11:03:00,74.3,55.1,27.62,SSW,203,2.5,5.6,51,0.00,,,0.00,WUHU216HW,2013-08-30 18:03:00,
2013-08-30 11:08:00,75.1,55.3,27.62,WSW,248,4.7,5.1,50,0.00,,,0.00,WUHU216HW,2013-08-30 18:08:00,
2013-08-30 11:13:00,74.9,53.8,27.62,WSW,248,3.8,6.9,48,0.00,,,0.00,WUHU216HW,2013-08-30 18:13:00,
2013-08-30 11:18:00,74.9,53.3,27.62,SSW,203,1.6,7.4,47,0.00,,,0.00,WUHU216HW,2013-08-30 18:18:00,
2013-08-30 11:23:00,75.1,53.5,27.61,WSW,248,4.9,7.4,47,0.00,,,0.00,WUHU216HW,2013-08-30 18:23:00,
2013-08-30 11:28:00,74.7,53.1,27.61,SSW,203,1.8,5.4,47,0.00,,,0.00,WUHU216HW,2013-08-30 18:28:00,
2013-08-30 11:33:00,75.2,54.2,27.61,SSW,203,2.7,5.4,48,0.00,,,0.00,WUHU216HW,2013-08-30 18:33:00,
2013-08-30 11:38:00,76.3,54.0,27.61,SSW,203,4.3,5.4,46,0.00,,,0.00,WUHU216HW,2013-08-30 18:38:00,
2013-08-30 11:43:00,77.0,54.6,27.61,SSW,203,5.4,5.6,46,0.00,,,0.00,WUHU216HW,2013-08-30 18:43:00,
2013-08-30 11:48:00,77.2,52.9,27.61,WSW,248,4.5,5.6,43,0.00,,,0.00,WUHU216HW,2013-08-30 18:48:00,
2013-08-30 11:53:00,77.0,54.6,27.61,SW,225,3.1,6.3,46,0.00,,,0.00,WUHU216HW,2013-08-30 18:53:00,
2013-08-30 11:57:00,77.6,53.9,27.60,WSW,248,2.9,6.3,44,0.00,,,0.00,WUHU216HW,2013-08-30 18:57:00,
2013-08-30 12:02:00,77.8,54.0,27.60,WSW,248,1.3,4.9,44,0.00,,,0.00,WUHU216HW,2013-08-30 19:02:00,
2013-08-30 12:07:00,77.8,55.3,27.60,WSW,248,0.7,4.9,46,0.00,,,0.00,WUHU216HW,2013-08-30 19:07:00,
2013-08-30 12:12:00,78.1,55.6,27.60,SSW,203,1.8,2.9,46,0.00,,,0.00,WUHU216HW,2013-08-30 19:12:00,
2013-08-30 12:17:00,78.1,54.4,27.60,WSW,248,1.8,7.8,44,0.00,,,0.00,WUHU216HW,2013-08-30 19:17:00,
2013-08-30 12:22:00,78.5,54.7,27.60,SW,225,2.0,7.8,44,0.00,,,0.00,WUHU216HW,2013-08-30 19:22:00,
2013-08-30 12:27:00,79.4,53.0,27.60,SW,225,4.3,6.7,40,0.00,,,0.00,WUHU216HW,2013-08-30 19:27:00,
2013-08-30 12:32:00,80.1,52.1,27.60,SW,225,7.2,7.2,38,0.00,,,0.00,WUHU216HW,2013-08-30 19:32:00,
2013-08-30 12:37:00,79.9,52.7,27.60,SW,225,4.0,8.7,39,0.00,,,0.00,WUHU216HW,2013-08-30 19:37:00,
2013-08-30 12:42:00,79.6,50.9,27.60,SSW,203,4.0,8.7,37,0.00,,,0.00,WUHU216HW,2013-08-30 19:42:00,
2013-08-30 12:47:00,78.8,48.7,27.60,SSW,203,6.3,8.3,35,0.00,,,0.00,WUHU216HW,2013-08-30 19:47:00,
2013-08-30 12:52:00,78.8,48.7,27.60,SW,225,5.1,8.7,35,0.00,,,0.00,WUHU216HW,2013-08-30 19:52:00,
2013-08-30 12:57:00,79.2,49.1,27.59,SSW,203,5.4,8.7,35,0.00,,,0.00,WUHU216HW,2013-08-30 19:57:00,
2013-08-30 13:02:00,79.6,49.3,27.59,SW,225,5.4,8.7,35,0.00,,,0.00,WUHU216HW,2013-08-30 20:02:00,
2013-08-30 13:07:00,80.1,49.1,27.59,SW,225,6.7,8.9,34,0.00,,,0.00,WUHU216HW,2013-08-30 20:07:00,
2013-08-30 13:12:00,80.3,49.2,27.59,SSW,203,5.6,8.9,34,0.00,,,0.00,WUHU216HW,2013-08-30 20:12:00,
2013-08-30 13:17:00,78.8,50.2,27.59,SW,225,4.5,8.9,37,0.00,,,0.00,WUHU216HW,2013-08-30 20:17:00,
2013-08-30 13:22:00,79.0,50.4,27.58,WSW,248,4.7,8.9,37,0.00,,,0.00,WUHU216HW,2013-08-30 20:22:00,
2013-08-30 13:27:00,79.4,50.0,27.58,WSW,248,4.5,8.9,36,0.00,,,0.00,WUHU216HW,2013-08-30 20:27:00,
2013-08-30 13:32:00,79.9,50.4,27.58,SW,225,6.7,8.9,36,0.00,,,0.00,WUHU216HW,2013-08-30 20:32:00,
2013-08-30 13:37:00,80.3,50.0,27.58,SW,225,5.8,8.9,35,0.00,,,0.00,WUHU216HW,2013-08-30 20:37:00,
2013-08-30 13:42:00,80.3,50.0,27.58,SSW,203,3.4,8.9,35,0.00,,,0.00,WUHU216HW,2013-08-30 20:42:00,
2013-08-30 13:47:00,80.5,50.1,27.58,SW,225,5.4,8.1,35,0.00,,,0.00,WUHU216HW,2013-08-30 20:47:00,
2013-08-30 13:52:00,80.6,48.8,27.58,South,180,2.5,6.7,33,0.00,,,0.00,WUHU216HW,2013-08-30 20:52:00,
2013-08-30 13:57:00,80.6,48.8,27.58,WSW,248,4.0,6.7,33,0.00,,,0.00,WUHU216HW,2013-08-30 20:57:00,
2013-08-30 14:02:00,80.5,47.8,27.58,SW,225,5.1,9.2,32,0.00,,,0.00,WUHU216HW,2013-08-30 21:02:00,
2013-08-30 14:07:00,80.3,47.7,27.58,WSW,248,6.9,9.2,32,0.00,,,0.00,WUHU216HW,2013-08-30 21:07:00,
2013-08-30 14:12:00,80.5,48.6,27.58,SE,135,5.8,7.6,33,0.00,,,0.00,WUHU216HW,2013-08-30 21:12:00,
2013-08-30 14:17:00,80.6,48.8,27.57,SW,225,2.7,8.7,33,0.00,,,0.00,WUHU216HW,2013-08-30 21:17:00,
2013-08-30 14:22:00,80.5,48.6,27.57,WSW,248,1.8,8.7,33,0.00,,,0.00,WUHU216HW,2013-08-30 21:22:00,
2013-08-30 14:27:00,80.5,49.4,27.57,WSW,248,4.0,7.6,34,0.00,,,0.00,WUHU216HW,2013-08-30 21:27:00,
2013-08-30 14:32:00,81.0,48.2,27.57,SSW,203,5.4,5.6,32,0.00,,,0.00,WUHU216HW,2013-08-30 21:32:00,
2013-08-30 14:37:00,81.0,46.7,27.57,West,270,7.2,9.6,30,0.00,,,0.00,WUHU216HW,2013-08-30 21:37:00,
2013-08-30 14:42:00,81.0,45.7,27.57,South,180,4.5,9.6,29,0.00,,,0.00,WUHU216HW,2013-08-30 21:42:00,
2013-08-30 14:47:00,81.4,46.0,27.57,SW,225,3.4,8.1,29,0.00,,,0.00,WUHU216HW,2013-08-30 21:47:00,
2013-08-30 14:52:00,81.4,47.0,27.56,South,180,4.7,8.1,30,0.00,,,0.00,WUHU216HW,2013-08-30 21:52:00,
2013-08-30 14:57:00,81.4,48.6,27.57,SW,225,2.7,9.2,32,0.00,,,0.00,WUHU216HW,2013-08-30 21:57:00,
2013-08-30 15:02:00,81.7,48.9,27.56,SE,135,4.0,9.2,32,0.00,,,0.00,WUHU216HW,2013-08-30 22:02:00,
2013-08-30 15:07:00,81.7,48.1,27.56,SW,225,1.1,6.9,31,0.00,,,0.00,WUHU216HW,2013-08-30 22:07:00,
2013-08-30 15:12:00,82.1,46.5,27.56,WSW,248,11.6,11.6,29,0.00,,,0.00,WUHU216HW,2013-08-30 22:12:00,
2013-08-30 15:17:00,81.5,48.0,27.56,West,270,1.8,11.6,31,0.00,,,0.00,WUHU216HW,2013-08-30 22:17:00,
2013-08-30 15:22:00,81.7,48.1,27.56,West,270,3.4,11.6,31,0.00,,,0.00,WUHU216HW,2013-08-30 22:22:00,
2013-08-30 15:27:00,81.7,48.1,27.56,WSW,248,3.4,4.9,31,0.00,,,0.00,WUHU216HW,2013-08-30 22:27:00,
2013-08-30 15:32:00,81.5,47.2,27.56,SW,225,2.7,6.5,30,0.00,,,0.00,WUHU216HW,2013-08-30 22:32:00,
2013-08-30 15:37:00,81.4,48.6,27.56,West,270,0.7,6.5,32,0.00,,,0.00,WUHU216HW,2013-08-30 22:37:00,
2013-08-30 15:42:00,81.9,49.1,27.56,SSW,203,1.8,5.4,32,0.00,,,0.00,WUHU216HW,2013-08-30 22:42:00,
2013-08-30 15:47:00,82.8,48.3,27.56,South,180,2.0,5.4,30,0.00,,,0.00,WUHU216HW,2013-08-30 22:47:00,
2013-08-30 15:52:00,82.8,47.2,27.55,SSW,203,4.3,6.5,29,0.00,,,0.00,WUHU216HW,2013-08-30 22:52:00,
2013-08-30 15:57:00,81.9,47.4,27.56,SW,225,2.7,7.8,30,0.00,,,0.00,WUHU216HW,2013-08-30 22:57:00,
2013-08-30 16:02:00,81.7,47.4,27.55,SW,225,5.6,7.8,30,0.00,,,0.00,WUHU216HW,2013-08-30 23:02:00,
2013-08-30 16:07:00,81.5,46.1,27.55,South,180,4.7,6.9,29,0.00,,,0.00,WUHU216HW,2013-08-30 23:07:00,
2013-08-30 16:12:00,81.4,46.0,27.55,SSW,203,3.1,5.8,29,0.00,,,0.00,WUHU216HW,2013-08-30 23:12:00,
2013-08-30 16:17:00,81.2,46.9,27.55,SW,225,6.3,6.3,30,0.00,,,0.00,WUHU216HW,2013-08-30 23:17:00,
2013-08-30 16:22:00,80.8,45.5,27.55,SSW,203,3.1,6.3,29,0.00,,,0.00,WUHU216HW,2013-08-30 23:22:00,
2013-08-30 16:27:00,80.8,45.5,27.55,WSW,248,6.3,7.8,29,0.00,,,0.00,WUHU216HW,2013-08-30 23:27:00,
2013-08-30 16:32:00,81.0,46.7,27.55,SSW,203,2.5,7.8,30,0.00,,,0.00,WUHU216HW,2013-08-30 23:32:00,
2013-08-30 16:37:00,81.2,46.9,27.55,SW,225,3.4,6.7,30,0.00,,,0.00,WUHU216HW,2013-08-30 23:37:00,
2013-08-30 16:42:00,81.5,46.1,27.55,WSW,248,5.4,6.5,29,0.00,,,0.00,WUHU216HW,2013-08-30 23:42:00,
2013-08-30 16:47:00,81.5,47.2,27.54,WSW,248,2.2,5.4,30,0.00,,,0.00,WUHU216HW,2013-08-30 23:47:00,
2013-08-30 16:52:00,81.4,46.0,27.54,SSW,203,2.0,5.1,29,0.00,,,0.00,WUHU216HW,2013-08-30 23:52:00,
2013-08-30 16:57:00,81.4,46.0,27.54,SSW,203,1.6,5.1,29,0.00,,,0.00,WUHU216HW,2013-08-30 23:57:00,
2013-08-30 17:02:00,81.4,47.0,27.54,WSW,248,1.1,4.0,30,0.00,,,0.00,WUHU216HW,2013-08-31 00:02:00,
2013-08-30 17:07:00,81.4,47.8,27.54,SSW,203,2.9,4.0,31,0.00,,,0.00,WUHU216HW,2013-08-31 00:07:00,
2013-08-30 17:12:00,81.2,46.9,27.54,WSW,248,4.5,5.4,30,0.00,,,0.00,WUHU216HW,2013-08-31 00:12:00,
2013-08-30 17:17:00,81.2,46.9,27.54,SSW,203,3.4,5.4,30,0.00,,,0.00,WUHU216HW,2013-08-31 00:17:00,
2013-08-30 17:22:00,81.0,46.7,27.54,SSW,203,2.0,4.5,30,0.00,,,0.00,WUHU216HW,2013-08-31 00:22:00,
2013-08-30 17:27:00,80.6,46.4,27.54,ESE,113,1.3,4.9,30,0.00,,,0.00,WUHU216HW,2013-08-31 00:27:00,
2013-08-30 17:32:00,80.6,46.4,27.54,SW,225,2.2,6.3,30,0.00,,,0.00,WUHU216HW,2013-08-31 00:32:00,
2013-08-30 17:37:00,80.3,46.9,27.54,SW,225,1.1,6.3,31,0.00,,,0.00,WUHU216HW,2013-08-31 00:37:00,
2013-08-30 17:42:00,80.3,46.9,27.54,SSW,203,4.0,5.4,31,0.00,,,0.00,WUHU216HW,2013-08-31 00:42:00,
2013-08-30 17:47:00,80.1,46.0,27.54,WSW,248,1.8,5.1,30,0.00,,,0.00,WUHU216HW,2013-08-31 00:47:00,
2013-08-30 17:52:00,79.6,46.3,27.54,WNW,293,3.1,4.3,31,0.00,,,0.00,WUHU216HW,2013-08-31 00:52:00,
2013-08-30 17:57:00,78.8,45.6,27.54,SW,225,1.8,4.9,31,0.00,,,0.00,WUHU216HW,2013-08-31 00:57:00,
2013-08-30 18:02:00,78.3,45.2,27.54,NW,315,0.4,4.9,31,0.00,,,0.00,WUHU216HW,2013-08-31 01:02:00,
2013-08-30 18:07:00,77.9,45.6,27.53,WSW,248,1.1,2.9,32,0.00,,,0.00,WUHU216HW,2013-08-31 01:07:00,
2013-08-30 18:12:00,77.8,45.5,27.54,SW,225,1.6,6.3,32,0.00,,,0.00,WUHU216HW,2013-08-31 01:12:00,
2013-08-30 18:17:00,77.4,45.2,27.54,SW,225,2.5,6.3,32,0.00,,,0.00,WUHU216HW,2013-08-31 01:17:00,
2013-08-30 18:22:00,77.4,45.2,27.54,SW,225,2.2,4.5,32,0.00,,,0.00,WUHU216HW,2013-08-31 01:22:00,
2013-08-30 18:27:00,77.2,45.0,27.54,SW,225,1.1,4.5,32,0.00,,,0.00,WUHU216HW,2013-08-31 01:27:00,
2013-08-30 18:32:00,76.9,44.7,27.54,WSW,248,2.2,2.9,32,0.00,,,0.00,WUHU216HW,2013-08-31 01:32:00,
2013-08-30 18:37:00,76.7,44.6,27.54,WSW,248,1.8,3.6,32,0.00,,,0.00,WUHU216HW,2013-08-31 01:37:00,
2013-08-30 18:42:00,76.3,44.3,27.54,SSE,158,2.5,3.6,32,0.00,,,0.00,WUHU216HW,2013-08-31 01:42:00,
2013-08-30 18:47:00,76.1,44.8,27.54,SW,225,0.4,3.1,33,0.00,,,0.00,WUHU216HW,2013-08-31 01:47:00,
2013-08-30 18:52:00,75.8,44.6,27.54,WSW,248,1.6,2.5,33,0.00,,,0.00,WUHU216HW,2013-08-31 01:52:00,
2013-08-30 18:57:00,75.6,44.4,27.54,WSW,248,1.8,4.0,33,0.00,,,0.00,WUHU216HW,2013-08-31 01:57:00,
2013-08-30 19:02:00,75.2,44.0,27.54,SW,225,0.9,4.0,33,0.00,,,0.00,WUHU216HW,2013-08-31 02:02:00,
2013-08-30 19:07:00,74.9,43.8,27.54,West,270,0.9,1.8,33,0.00,,,0.00,WUHU216HW,2013-08-31 02:07:00,
2013-08-30 19:12:00,74.5,43.4,27.54,West,270,0.7,2.2,33,0.00,,,0.00,WUHU216HW,2013-08-31 02:12:00,
2013-08-30 19:17:00,74.5,43.4,27.54,West,270,0.0,2.2,33,0.00,,,0.00,WUHU216HW,2013-08-31 02:17:00,
2013-08-30 19:22:00,74.2,43.8,27.54,West,270,0.0,1.1,34,0.00,,,0.00,WUHU216HW,2013-08-31 02:22:00,
2013-08-30 19:27:00,73.8,43.5,27.54,West,270,0.0,0.4,34,0.00,,,0.00,WUHU216HW,2013-08-31 02:27:00,
2013-08-30 19:32:00,73.3,43.0,27.54,West,270,0.0,0.0,34,0.00,,,0.00,WUHU216HW,2013-08-31 02:32:00,
2013-08-30 19:37:00,72.7,42.6,27.54,West,270,0.0,0.0,34,0.00,,,0.00,WUHU216HW,2013-08-31 02:37:00,
2013-08-30 19:42:00,72.2,42.1,27.54,West,270,0.0,0.0,34,0.00,,,0.00,WUHU216HW,2013-08-31 02:42:00,
2013-08-30 19:47:00,71.6,42.4,27.54,West,270,0.0,0.0,35,0.00,,,0.00,WUHU216HW,2013-08-31 02:47:00,
2013-08-30 19:52:00,70.9,41.8,27.54,West,270,0.0,0.0,35,0.00,,,0.00,WUHU216HW,2013-08-31 02:52:00,
2013-08-30 19:57:00,70.2,41.1,27.54,West,270,0.0,0.4,35,0.00,,,0.00,WUHU216HW,2013-08-31 02:57:00,
2013-08-30 20:02:00,69.5,42.0,27.54,West,270,0.0,0.4,37,0.00,,,0.00,WUHU216HW,2013-08-31 03:02:00,
2013-08-30 20:07:00,68.8,41.3,27.55,West,270,0.0,0.0,37,0.00,,,0.00,WUHU216HW,2013-08-31 03:07:00,
2013-08-30 20:12:00,68.0,41.4,27.55,West,270,0.0,0.0,38,0.00,,,0.00,WUHU216HW,2013-08-31 03:12:00,
2013-08-30 20:17:00,67.5,40.9,27.55,West,270,0.0,0.0,38,0.00,,,0.00,WUHU216HW,2013-08-31 03:17:00,
2013-08-30 20:22:00,66.8,40.2,27.55,West,270,0.0,0.0,38,0.00,,,0.00,WUHU216HW,2013-08-31 03:22:00,
2013-08-30 20:27:00,66.1,39.6,27.55,West,270,0.0,0.0,38,0.00,,,0.00,WUHU216HW,2013-08-31 03:27:00,
2013-08-30 20:32:00,65.3,39.7,27.55,West,270,0.0,0.0,39,0.00,,,0.00,WUHU216HW,2013-08-31 03:32:00,
2013-08-30 20:37:00,64.8,39.3,27.55,West,270,0.0,0.4,39,0.00,,,0.00,WUHU216HW,2013-08-31 03:37:00,
2013-08-30 20:42:00,64.1,38.5,27.55,West,270,0.0,0.4,39,0.00,,,0.00,WUHU216HW,2013-08-31 03:42:00,
2013-08-30 20:47:00,63.4,38.6,27.55,West,270,0.9,0.9,40,0.00,,,0.00,WUHU216HW,2013-08-31 03:47:00,
2013-08-30 20:52:00,62.8,38.2,27.55,West,270,0.4,0.9,40,0.00,,,0.00,WUHU216HW,2013-08-31 03:52:00,
2013-08-30 20:57:00,62.3,38.3,27.55,West,270,0.9,0.9,41,0.00,,,0.00,WUHU216HW,2013-08-31 03:57:00,
2013-08-30 21:01:00,62.1,38.1,27.55,West,270,0.4,0.9,41,0.00,,,0.00,WUHU216HW,2013-08-31 04:01:00,
2013-08-30 21:02:00,61.9,37.9,27.55,West,270,0.0,0.9,41,0.00,,,0.00,WUHU216HW,2013-08-31 04:02:00,
2013-08-30 21:07:00,61.4,38.0,27.54,West,270,0.0,0.9,42,0.00,,,0.00,WUHU216HW,2013-08-31 04:07:00,
2013-08-30 21:12:00,60.8,38.1,27.54,West,270,0.0,0.4,43,0.00,,,0.00,WUHU216HW,2013-08-31 04:12:00,
2013-08-30 21:17:00,60.5,37.8,27.55,West,270,0.0,0.4,43,0.00,,,0.00,WUHU216HW,2013-08-31 04:17:00,
2013-08-30 21:22:00,60.3,38.2,27.55,West,270,0.0,0.0,44,0.00,,,0.00,WUHU216HW,2013-08-31 04:22:00,
2013-08-30 21:27:00,59.9,38.4,27.55,West,270,0.0,0.0,45,0.00,,,0.00,WUHU216HW,2013-08-31 04:27:00,
2013-08-30 21:32:00,59.6,38.1,27.55,West,270,0.0,0.0,45,0.00,,,0.00,WUHU216HW,2013-08-31 04:32:00,
2013-08-30 21:37:00,59.2,38.3,27.55,West,270,0.0,0.0,46,0.00,,,0.00,WUHU216HW,2013-08-31 04:37:00,
2013-08-30 21:42:00,58.9,38.1,27.55,West,270,0.0,0.0,46,0.00,,,0.00,WUHU216HW,2013-08-31 04:42:00,
2013-08-30 21:47:00,58.5,38.3,27.55,West,270,0.0,0.0,47,0.00,,,0.00,WUHU216HW,2013-08-31 04:47:00,
2013-08-30 21:52:00,58.1,38.0,27.55,West,270,0.0,0.0,47,0.00,,,0.00,WUHU216HW,2013-08-31 04:52:00,
2013-08-30 21:57:00,57.8,38.3,27.55,West,270,0.0,0.0,48,0.00,,,0.00,WUHU216HW,2013-08-31 04:57:00,
2013-08-30 22:02:00,57.2,37.7,27.55,West,270,0.0,0.0,48,0.00,,,0.00,WUHU216HW,2013-08-31 05:02:00,
2013-08-30 22:07:00,56.7,37.8,27.55,West,270,0.0,0.0,49,0.00,,,0.00,WUHU216HW,2013-08-31 05:07:00,
2013-08-30 22:12:00,56.3,37.5,27.55,West,270,0.0,0.0,49,0.00,,,0.00,WUHU216HW,2013-08-31 05:12:00,
2013-08-30 22:17:00,56.2,37.8,27.55,West,270,0.0,0.0,50,0.00,,,0.00,WUHU216HW,2013-08-31 05:17:00,
2013-08-30 22:22:00,55.6,37.3,27.55,West,270,0.0,0.0,50,0.00,,,0.00,WUHU216HW,2013-08-31 05:22:00,
2013-08-30 22:27:00,55.4,37.1,27.55,West,270,0.0,0.0,50,0.00,,,0.00,WUHU216HW,2013-08-31 05:27:00,
2013-08-30 22:32:00,55.1,37.3,27.55,West,270,0.0,0.0,51,0.00,,,0.00,WUHU216HW,2013-08-31 05:32:00,
2013-08-30 22:37:00,54.9,37.1,27.55,West,270,0.0,0.0,51,0.00,,,0.00,WUHU216HW,2013-08-31 05:37:00,
2013-08-30 22:42:00,54.5,37.2,27.55,West,270,0.0,0.0,52,0.00,,,0.00,WUHU216HW,2013-08-31 05:42:00,
2013-08-30 22:47:00,54.2,37.4,27.56,West,270,0.0,0.0,53,0.00,,,0.00,WUHU216HW,2013-08-31 05:47:00,
2013-08-30 22:52:00,53.8,37.5,27.56,West,270,0.0,0.0,54,0.00,,,0.00,WUHU216HW,2013-08-31 05:52:00,
2013-08-30 22:57:00,53.5,37.2,27.56,West,270,0.0,0.0,54,0.00,,,0.00,WUHU216HW,2013-08-31 05:57:00,
2013-08-30 23:02:00,53.1,37.3,27.56,West,270,0.0,0.0,55,0.00,,,0.00,WUHU216HW,2013-08-31 06:02:00,
2013-08-30 23:07:00,52.7,36.9,27.56,West,270,0.0,0.0,55,0.00,,,0.00,WUHU216HW,2013-08-31 06:07:00,
2013-08-30 23:12:00,52.6,37.3,27.56,West,270,0.4,0.7,56,0.00,,,0.00,WUHU216HW,2013-08-31 06:12:00,
2013-08-30 23:17:00,52.2,37.4,27.56,West,270,0.4,0.7,57,0.00,,,0.00,WUHU216HW,2013-08-31 06:17:00,
2013-08-30 23:22:00,52.0,37.2,27.56,West,270,0.0,0.7,57,0.00,,,0.00,WUHU216HW,2013-08-31 06:22:00,
2013-08-30 23:27:00,51.8,37.4,27.56,West,270,0.0,0.4,58,0.00,,,0.00,WUHU216HW,2013-08-31 06:27:00,
2013-08-30 23:32:00,51.5,37.1,27.56,West,270,0.0,0.4,58,0.00,,,0.00,WUHU216HW,2013-08-31 06:32:00,
2013-08-30 23:37:00,51.3,37.0,27.56,West,270,0.0,0.4,58,0.00,,,0.00,WUHU216HW,2013-08-31 06:37:00,
2013-08-30 23:42:00,51.1,37.3,27.56,West,270,0.0,0.0,59,0.00,,,0.00,WUHU216HW,2013-08-31 06:42:00,
2013-08-30 23:47:00,50.9,37.1,27.56,West,270,0.0,0.0,59,0.00,,,0.00,WUHU216HW,2013-08-31 06:47:00,
2013-08-30 23:52:00,50.8,37.4,27.56,West,270,0.0,0.0,60,0.00,,,0.00,WUHU216HW,2013-08-31 06:52:00,
2013-08-30 23:57:00,50.8,37.4,27.56,West,270,0.0,0.0,60,0.00,,,0.00,WUHU216HW,2013-08-31 06:57:00,